Total_Precipitation_Accumulation
1.06 0.98 0.99 1.15 1.15 1.19 1.40 1.52 1.38 1.30 1.30 1.23 1.16 1.11 1.08 1.00 0.99 0.98 1.28 1.59 1.89 2.29 2.62 2.58 2.23 1.81 1.68 1.84 1.87 1.89 1.90 2.10 2.55 2.68 2.61 2.56 2.43 2.42 2.16 1.79 1.49 1.33 1.24
1.10 1.12 1.03 1.11 1.26 1.32 1.37 1.43 1.38 1.30 1.28 1.30 1.26 1.28 1.26 1.06 1.09 1.10 1.19 1.28 1.47 1.73 2.32 2.69 2.43 2.02 1.90 1.93 1.89 1.93 1.90 1.95 2.23 2.49 2.67 2.66 2.58 2.56 2.19 1.78 1.59 1.46 1.44
1.10 1.11 1.01 1.06 1.23 1.42 1.40 1.38 1.33 1.35 1.22 1.17 1.28 1.36 1.36 1.25 1.25 1.28 1.24 1.23 1.16 1.35 1.83 2.43 2.54 2.31 2.19 2.23 2.05 2.00 2.03 2.17 2.07 2.23 2.56 2.68 2.61 2.47 2.11 1.78 1.55 1.55 1.60
1.09 1.18 1.11 1.07 1.23 1.44 1.61 1.66 1.54 1.47 1.36 1.29 1.37 1.37 1.33 1.42 1.39 1.35 1.31 1.31 1.31 1.21 1.35 1.63 1.99 2.31 2.41 2.49 2.28 2.13 1.96 1.82 1.77 1.89 2.11 2.45 2.59 2.34 2.19 1.98 1.73 1.65 1.71
1.03 1.24 1.33 1.28 1.31 1.48 1.55 1.56 1.59 1.49 1.48 1.43 1.34 1.30 1.27 1.40 1.49 1.31 1.28 1.29 1.42 1.38 1.27 1.11 1.25 1.54 1.96 2.55 2.65 2.25 2.03 1.82 1.61 1.61 1.77 2.04 2.34 2.29 2.20 2.05 1.83 1.65 1.67
1.25 1.39 1.50 1.50 1.50 1.57 1.55 1.67 1.86 1.67 1.50 1.51 1.41 1.30 1.25 1.31 1.38 1.40 1.44 1.40 1.44 1.40 1.33 1.18 1.12 0.96 1.21 1.84 2.35 2.18 2.19 2.06 1.72 1.57 1.64 1.74 1.92 2.07 1.94 1.94 1.92 1.73 1.67
1.48 1.60 1.71 1.75 1.68 1.60 1.67 1.84 2.20 2.08 1.72 1.56 1.61 1.48 1.33 1.30 1.38 1.37 1.50 1.58 1.49 1.42 1.46 1.37 1.20 1.05 0.92 1.03 1.52 1.97 2.11 2.23 2.02 1.75 1.63 1.66 1.74 1.89 1.83 1.79 1.93 1.87 1.78
1.59 1.65 1.85 1.97 1.90 1.89 1.98 2.02 2.27 2.42 2.13 1.94 1.98 2.14 1.90 1.68 1.36 1.13 1.22 1.35 1.40 1.43 1.41 1.44 1.32 1.17 1.11 1.03 0.90 1.28 1.67 1.92 2.10 1.98 1.80 1.71 1.72 1.81 1.79 1.73 1.77 1.95 1.88
1.78 1.75 1.85 2.04 2.03 2.00 2.04 2.23 2.54 2.84 2.74 2.47 2.29 2.45 2.20 1.93 1.79 1.29 1.06 1.13 1.27 1.40 1.42 1.49 1.46 1.33 1.26 1.28 1.07 0.91 1.08 1.42 1.93 2.11 2.04 1.85 1.77 1.80 1.85 1.84 1.87 1.96 2.01
1.69 1.69 1.81 2.01 2.16 2.26 2.34 2.40 2.40 2.75 2.99 2.82 2.66 2.35 2.05 1.90 2.02 1.83 1.36 1.11 1.17 1.24 1.31 1.32 1.41 1.46 1.41 1.36 1.26 0.88 0.78 1.02 1.69 2.31 2.40 2.13 1.93 1.87 2.02 2.17 2.08 1.88 1.88
1.79 1.69 1.74 1.81 1.86 1.96 2.10 2.24 2.30 2.53 2.71 2.85 2.81 2.60 2.32 2.16 1.74 1.75 1.80 1.55 1.27 1.05 1.08 1.21 1.39 1.44 1.43 1.35 1.37 1.02 0.78 0.68 1.00 1.71 2.24 2.40 2.31 2.21 2.26 2.28 2.13 1.96 1.85
1.77 1.66 1.61 1.69 1.72 1.73 1.87 1.99 2.09 2.34 2.52 2.63 2.69 2.58 2.47 2.41 2.15 1.90 1.72 1.69 1.54 1.23 1.06 1.06 1.17 1.28 1.33 1.32 1.22 1.19 0.95 0.70 0.68 0.96 1.41 1.94 2.23 2.31 2.35 2.32 2.25 2.08 2.06
1.41 1.39 1.30 1.36 1.50 1.54 1.73 1.80 1.75 1.81 1.99 2.20 2.37 2.40 2.39 2.30 2.26 2.19 2.03 1.85 1.63 1.29 1.16 1.04 1.00 1.15 1.21 1.32 1.32 1.43 1.07 0.83 0.73 0.75 0.92 1.21 1.50 1.77 2.04 2.19 2.29 2.30 2.36
1.08 1.05 1.04 1.05 1.13 1.20 1.42 1.64 1.63 1.63 1.70 1.79 1.88 2.12 2.24 2.18 2.21 2.03 1.92 1.94 1.75 1.47 1.27 1.03 0.92 0.96 1.02 1.15 1.47 1.59 1.09 0.96 0.80 0.80 0.86 0.90 1.01 1.14 1.42 1.75 1.94 2.10 2.26
0.83 0.81 0.85 0.94 1.00 0.99 1.09 1.24 1.42 1.49 1.55 1.62 1.63 1.78 1.89 1.96 1.93 1.79 1.82 1.89 1.78 1.52 1.34 1.19 1.08 0.99 0.98 1.03 1.32 1.28 1.11 1.08 0.98 0.92 0.86 0.84 0.83 0.84 0.96 1.14 1.33 1.49 1.62
0.75 0.75 0.72 0.73 0.81 0.84 0.93 1.05 1.10 1.21 1.29 1.44 1.60 1.74 1.75 1.78 1.81 1.72 1.71 1.84 1.82 1.61 1.37 1.18 1.05 1.02 1.10 1.07 1.24 1.13 1.21 1.29 1.02 0.90 0.84 0.83 0.77 0.70 0.65 0.70 0.83 0.96 1.06
0.59 0.59 0.62 0.68 0.70 0.73 0.75 0.76 0.80 0.87 0.94 1.04 1.11 1.25 1.46 1.64 1.69 1.69 1.74 1.80 1.84 1.70 1.45 1.31 1.08 1.09 1.24 1.21 1.20 1.13 1.21 1.26 1.06 0.95 0.80 0.75 0.75 0.70 0.67 0.63 0.63 0.69 0.78
0.54 0.54 0.58 0.62 0.62 0.68 0.71 0.70 0.69 0.72 0.82 0.91 0.92 0.93 1.03 1.27 1.44 1.56 1.63 1.65 1.72 1.70 1.56 1.54 1.45 1.24 1.21 1.20 1.32 1.38 1.31 1.27 1.24 1.22 1.09 0.87 0.78 0.73 0.70 0.66 0.60 0.57 0.59
0.66 0.67 0.67 0.69 0.65 0.68 0.68 0.68 0.71 0.73 0.75 0.82 0.85 0.86 0.92 1.02 1.19 1.28 1.38 1.49 1.57 1.68 1.67 1.51 1.56 1.49 1.28 1.25 1.29 1.37 1.42 1.51 1.39 1.34 1.40 1.22 1.00 0.89 0.81 0.75 0.67 0.62 0.60
0.59 0.59 0.67 0.74 0.82 0.87 0.85 0.81 0.79 0.78 0.73 0.75 0.82 0.89 0.91 0.92 1.05 1.26 1.38 1.45 1.49 1.60 1.71 1.66 1.60 1.57 1.40 1.33 1.34 1.36 1.49 1.58 1.59 1.39 1.30 1.25 1.19 1.06 0.94 0.85 0.77 0.73 0.71
0.50 0.49 0.57 0.66 0.76 0.85 0.90 0.90 0.76 0.65 0.66 0.71 0.71 0.72 0.80 0.87 0.91 1.06 1.22 1.46 1.48 1.60 1.67 1.74 1.68 1.53 1.40 1.33 1.29 1.30 1.39 1.58 1.63 1.60 1.50 1.32 1.20 1.03 0.92 0.89 0.88 0.87 0.82
0.45 0.46 0.49 0.46 0.49 0.54 0.72 0.72 0.60 0.50 0.54 0.63 0.70 0.72 0.72 0.74 0.77 0.81 0.84 1.09 1.29 1.42 1.53 1.56 1.62 1.51 1.39 1.33 1.40 1.41 1.37 1.43 1.53 1.54 1.41 1.46 1.42 1.23 1.07 0.95 1.02 1.08 1.05
0.42 0.43 0.38 0.32 0.34 0.39 0.45 0.44 0.49 0.50 0.52 0.56 0.64 0.73 0.78 0.76 0.82 0.90 0.87 0.90 1.00 1.07 1.20 1.33 1.38 1.35 1.35 1.30 1.38 1.42 1.40 1.34 1.27 1.36 1.34 1.40 1.45 1.34 1.20 1.09 1.09 1.06 1.05
0.39 0.45 0.38 0.35 0.39 0.36 0.38 0.42 0.46 0.47 0.60 0.66 0.65 0.65 0.77 0.83 0.90 1.06 1.04 1.09 1.02 0.93 0.94 0.99 1.13 1.21 1.17 1.27 1.35 1.52 1.58 1.46 1.35 1.37 1.36 1.28 1.25 1.22 1.14 1.13 1.14 1.00 0.94
0.34 0.31 0.33 0.48 0.47 0.44 0.52 0.48 0.41 0.47 0.60 0.68 0.63 0.65 0.77 0.87 1.04 1.15 1.17 1.18 1.07 0.98 1.02 1.11 1.19 1.26 1.28 1.34 1.40 1.47 1.53 1.51 1.42 1.39 1.32 1.19 1.11 1.12 1.12 1.09 1.06 1.07 1.00
0.25 0.26 0.29 0.42 0.47 0.51 0.53 0.41 0.38 0.48 0.61 0.69 0.69 0.68 0.90 0.91 1.00 1.05 1.10 1.22 1.23 1.10 1.03 1.05 1.10 1.13 1.12 1.22 1.42 1.43 1.53 1.61 1.48 1.40 1.30 1.18 1.14 1.23 1.29 1.14 1.01 0.98 0.95